Phuket, Thailand

1:05 AM +07 on January 19, 2018 (GMT +0700)
Phuket International

Weather History for VTSP - May, 2013

Change the Weather History Date:

Sunday, May 12, 2013

  Actual Average Record
Temperature  
Mean Temperature 82 °F -  
Max Temperature 90 °F 89 °F 100 °F (1998)
Min Temperature 75 °F 78 °F 73 °F (2014)
Cooling Degree Days 18    
Growing Degree Days 32 (Base 50)    
Moisture  
Dew Point 77 °F    
Average Humidity 90    
Maximum Humidity 99    
Minimum Humidity 79    
Precipitation  
Precipitation 1.81 in 0.42 in - ()
Sea Level Pressure  
Sea Level Pressure 29.79 in    
Wind  
Wind Speed 1 mph ()    
Max Wind Speed 13 mph    
Max Gust Speed 28 mph    
Visibility 4.7 miles    
Events Rain    
Averages and records for this station are not official NWS values.
T = Trace of Precipitation, MM = Missing Value Source: Averaged Metar Reports

Daily Weather History Graph

Daily Weather History Graph

Search for Another Location

Airport or City:

Trip Planner

Search our weather history database for the weather conditions in past years. The results will help you decide how hot, cold, wet, or windy it might be!

Date:

Astronomy

May. 12, 2013 Rise Set
Actual Time 6:08 AM +07 6:37 PM +07
Civil Twilight 5:46 AM +07 6:59 PM +07
Nautical Twilight 5:21 AM +07 7:25 PM +07
Astronomical Twilight 4:54 AM +07 7:51 PM +07
Moon 7:45 AM +07 (5/12) 8:33 PM +07 (5/12)
Length of Visible Light 13h 12m
Length of Day
12h 28m
Waxing Crescent, 4% of the Moon is Illuminated
May 12
Waxing Crescent
May 18
First Quarter
May 25
Full
Jun 1
Last Quarter
Jun 8
New

Hourly Weather History & Observations

Time (+07) Temp. Heat Index Dew Point Humidity Pressure Visibility Wind Dir Wind Speed Gust Speed Precip Events Conditions
12:00 AM 80.6 °F 87.1 °F 77.0 °F 89% 29.77 in 5.0 mi Calm Calm - N/A   Mostly Cloudy
12:30 AM 80.6 °F 87.1 °F 77.0 °F 89% 29.77 in 5.0 mi Calm Calm - N/A   Mostly Cloudy
1:00 AM 82 °F - 79 °F 88% 29.74 in 6 mi Calm Calm - -   Scattered Clouds
1:00 AM 80.6 °F 87.1 °F 77.0 °F 89% 29.77 in 5.0 mi Calm Calm - N/A   Mostly Cloudy
1:30 AM 80.6 °F 87.1 °F 77.0 °F 89% 29.77 in 5.0 mi Calm Calm - N/A   Mostly Cloudy
2:00 AM 80.6 °F 87.1 °F 77.0 °F 89% 29.74 in 5.0 mi Calm Calm - N/A   Mostly Cloudy
2:30 AM 80.6 °F 87.1 °F 77.0 °F 89% 29.74 in 5.0 mi Calm Calm - N/A   Mostly Cloudy
3:00 AM 80.6 °F 87.1 °F 77.0 °F 89% 29.71 in 5.0 mi Calm Calm - N/A   Mostly Cloudy
3:30 AM 80.6 °F 87.1 °F 77.0 °F 89% 29.71 in 5.0 mi Calm Calm - N/A   Mostly Cloudy
4:00 AM 78.8 °F - 77.0 °F 94% 29.71 in 5.0 mi Calm Calm - N/A   Mostly Cloudy
4:30 AM 78.8 °F - 77.0 °F 94% 29.74 in 5.0 mi Calm Calm - N/A   Mostly Cloudy
5:00 AM 80.6 °F 87.1 °F 77.0 °F 89% 29.74 in 5.0 mi Variable 1.2 mph - N/A   Mostly Cloudy
5:30 AM 80.6 °F 87.1 °F 77.0 °F 89% 29.74 in 5.0 mi Calm Calm - N/A   Mostly Cloudy
6:00 AM 80.6 °F 87.1 °F 77.0 °F 89% 29.74 in 5.0 mi ESE 3.5 mph - N/A   Mostly Cloudy
6:30 AM 80.6 °F 87.1 °F 77.0 °F 89% 29.77 in 5.0 mi Calm Calm - N/A   Mostly Cloudy
7:00 AM 81 °F - 79 °F 93% 29.73 in 6 mi Calm Calm - -   Scattered Clouds
7:00 AM 82.4 °F 92.4 °F 78.8 °F 89% 29.77 in 4.3 mi West 3.5 mph - N/A   Mostly Cloudy
7:30 AM 82.4 °F 92.4 °F 78.8 °F 89% 29.77 in 1.9 mi Variable 1.2 mph - N/A Rain Rain
8:00 AM 78.8 °F - 75.2 °F 89% 29.83 in 0.3 mi West 12.7 mph 27.6 mph N/A Rain Rain
8:30 AM 77.0 °F - 75.2 °F 94% 29.80 in 1.9 mi North 4.6 mph - N/A Rain Rain
9:00 AM 77.0 °F - 75.2 °F 94% 29.83 in 4.3 mi Variable 2.3 mph - N/A   Mostly Cloudy
9:30 AM 78.8 °F - 75.2 °F 89% 29.83 in 3.1 mi East 3.5 mph - N/A Rain Rain
10:00 AM 77.0 °F - 75.2 °F 94% 29.86 in 3.1 mi ESE 3.5 mph - N/A Rain Rain
10:30 AM 78.8 °F - 75.2 °F 89% 29.86 in 3.1 mi ENE 3.5 mph - N/A Rain Rain
11:00 AM 78.8 °F - 75.2 °F 89% 29.89 in 0.6 mi Calm Calm - N/A Rain Rain
11:30 AM 77.0 °F - 75.2 °F 94% 29.86 in 1.2 mi ESE 3.5 mph - N/A Rain Rain
12:00 PM 78.8 °F - 75.2 °F 89% 29.86 in 3.1 mi Variable 2.3 mph - N/A Rain Light Rain
12:30 PM 78.8 °F - 75.2 °F 89% 29.83 in 4.3 mi Variable 2.3 mph - N/A Rain Light Rain
1:00 PM 79 °F - 79 °F 99% 29.80 in 6 mi Calm Calm - - Rain Light Rain
1:00 PM 78.8 °F - 75.2 °F 89% 29.83 in 5.0 mi East 3.5 mph - N/A   Mostly Cloudy
1:30 PM 78.8 °F - 75.2 °F 89% 29.80 in 5.0 mi ENE 4.6 mph - N/A   Mostly Cloudy
2:00 PM 80.6 °F 87.1 °F 77.0 °F 89% 29.80 in 5.0 mi SE 3.5 mph - N/A   Mostly Cloudy
2:30 PM 80.6 °F 87.1 °F 77.0 °F 89% 29.80 in 5.0 mi East 4.6 mph - N/A   Mostly Cloudy
3:00 PM 80.6 °F 87.1 °F 77.0 °F 89% 29.77 in 5.0 mi ENE 4.6 mph - N/A   Mostly Cloudy
3:30 PM 82.4 °F 90.9 °F 77.0 °F 84% 29.77 in 5.0 mi East 5.8 mph - N/A   Mostly Cloudy
4:00 PM 82.4 °F 89.5 °F 75.2 °F 79% 29.77 in 5.6 mi ENE 4.6 mph - N/A   Mostly Cloudy
4:30 PM 82.4 °F 90.9 °F 77.0 °F 84% 29.77 in 5.6 mi East 4.6 mph - N/A   Mostly Cloudy
5:00 PM 82.4 °F 90.9 °F 77.0 °F 84% 29.74 in 5.6 mi East 4.6 mph - N/A   Mostly Cloudy
5:30 PM 80.6 °F 87.1 °F 77.0 °F 89% 29.74 in 5.6 mi East 5.8 mph - N/A   Mostly Cloudy
6:00 PM 80.6 °F 87.1 °F 77.0 °F 89% 29.74 in 5.6 mi East 3.5 mph - N/A   Mostly Cloudy
6:30 PM 80.6 °F 87.1 °F 77.0 °F 89% 29.74 in 5.6 mi East 3.5 mph - N/A   Mostly Cloudy
7:00 PM 81 °F - 78 °F 90% 29.72 in 5 mi Calm Calm - -   Partly Cloudy
7:00 PM 80.6 °F 87.1 °F 77.0 °F 89% 29.74 in 5.6 mi Variable 2.3 mph - N/A   Mostly Cloudy
7:30 PM 78.8 °F - 77.0 °F 94% 29.74 in 5.6 mi Variable 1.2 mph - N/A   Mostly Cloudy
8:00 PM 78.8 °F - 77.0 °F 94% 29.77 in 5.6 mi Variable 1.2 mph - N/A   Mostly Cloudy
8:30 PM 78.8 °F - 77.0 °F 94% 29.80 in 5.6 mi Calm Calm - N/A   Mostly Cloudy
9:00 PM 78.8 °F - 77.0 °F 94% 29.83 in 5.6 mi ESE 3.5 mph - N/A   Mostly Cloudy
9:30 PM 78.8 °F - 77.0 °F 94% 29.83 in 5.6 mi Calm Calm - N/A   Mostly Cloudy
10:00 PM 78.8 °F - 77.0 °F 94% 29.86 in 5.6 mi Calm Calm - N/A   Mostly Cloudy
10:30 PM 78.8 °F - 77.0 °F 94% 29.86 in 5.6 mi Calm Calm - N/A   Mostly Cloudy
11:00 PM 78.8 °F - 75.2 °F 89% 29.86 in 5.6 mi Calm Calm - N/A   Mostly Cloudy
11:30 PM 78.8 °F - 75.2 °F 89% 29.86 in 5.6 mi Calm Calm - N/A   Mostly Cloudy